| time (UTC) | temp F | wind direction | speed MPH | gust MPH | rain 1hr in | rain 24hr in | rain mn in | humidity % | barometer mb |
| 20260506213113 | 76 | 211 | 2.0 | 10.0 | 0.16 | 0.16 | 0.16 | 91 | 1013.7 |
| 20260506212558 | 77 | 0 | 2.0 | 10.0 | 0.16 | 0.16 | 0.16 | 92 | 1013.9 |
| 20260506212100 | 79 | 158 | 4.0 | 10.0 | 0.14 | 0.14 | 0.14 | 87 | 1013.8 |
| 20260506211558 | 81 | 162 | 3.0 | 9.0 | 0.00 | 0.00 | 0.00 | 78 | 1013.8 |
| 20260506211058 | 81 | 219 | 3.0 | 9.0 | 0.00 | 0.00 | 0.00 | 77 | 1013.8 |
| 20260506210558 | 82 | 189 | 3.0 | 9.0 | 0.00 | 0.00 | 0.00 | 77 | 1013.9 |
| 20260506210100 | 82 | 134 | 3.0 | 6.0 | 0.00 | 0.00 | 0.00 | 80 | 1014.1 |
| 20260506205558 | 83 | 241 | 2.0 | 8.0 | 0.00 | 0.00 | 0.00 | 76 | 1014.2 |
| 20260506205058 | 83 | 139 | 2.0 | 8.0 | 0.00 | 0.00 | 0.00 | 76 | 1013.8 |
| 20260506204555 | 83 | 168 | 3.0 | 8.0 | 0.00 | 0.00 | 0.00 | 75 | 1014.0 |
| 20260506204058 | 83 | 150 | 3.0 | 7.0 | 0.00 | 0.00 | 0.00 | 79 | 1014.4 |
| 20260506203602 | 82 | 163 | 3.0 | 7.0 | 0.00 | 0.00 | 0.00 | 77 | 1014.3 |
| 20260506203057 | 81 | 214 | 3.0 | 8.0 | 0.00 | 0.00 | 0.00 | 78 | 1014.3 |
| 20260506202558 | 81 | 178 | 2.0 | 8.0 | 0.00 | 0.00 | 0.00 | 78 | 1014.6 |
| 20260506202058 | 81 | 0 | 4.0 | 8.0 | 0.00 | 0.00 | 0.00 | 80 | 1014.6 |
| 20260506201603 | 81 | 201 | 2.0 | 5.0 | 0.00 | 0.00 | 0.00 | 80 | 1014.6 |
| 20260506201058 | 81 | 256 | 2.0 | 4.0 | 0.00 | 0.00 | 0.00 | 80 | 1014.4 |
| 20260506200558 | 82 | 217 | 0.0 | 6.0 | 0.00 | 0.00 | 0.00 | 77 | 1014.5 |
| 20260506200105 | 82 | 226 | 2.0 | 8.0 | 0.00 | 0.00 | 0.00 | 78 | 1014.5 |
| 20260506195558 | 82 | 143 | 2.0 | 8.0 | 0.00 | 0.00 | 0.00 | 75 | 1014.5 |
| 20260506195058 | 83 | 252 | 3.0 | 9.0 | 0.00 | 0.00 | 0.00 | 77 | 1014.5 |
| 20260506194628 | 83 | 150 | 1.0 | 9.0 | 0.00 | 0.00 | 0.00 | 75 | 1014.6 |
| 20260506194101 | 83 | 121 | 4.0 | 8.0 | 0.00 | 0.00 | 0.00 | 76 | 1014.8 |
| 20260506193559 | 83 | 217 | 2.0 | 10.0 | 0.00 | 0.00 | 0.00 | 73 | 1014.9 |
| 20260506193104 | 83 | 246 | 3.0 | 10.0 | 0.00 | 0.00 | 0.00 | 73 | 1015.0 |
| 20260506192558 | 83 | 150 | 2.0 | 5.0 | 0.00 | 0.00 | 0.00 | 74 | 1015.2 |
| 20260506192058 | 83 | 0 | 1.0 | 6.0 | 0.00 | 0.00 | 0.00 | 78 | 1015.1 |
| 20260506191600 | 82 | 137 | 1.0 | 6.0 | 0.00 | 0.00 | 0.00 | 75 | 1015.3 |
| 20260506191058 | 82 | 138 | 3.0 | 6.0 | 0.00 | 0.00 | 0.00 | 74 | 1015.4 |
| 20260506190558 | 83 | 230 | 2.0 | 7.0 | 0.00 | 0.00 | 0.00 | 74 | 1015.5 |
| 20260506185558 | 82 | 139 | 1.0 | 5.0 | 0.00 | 0.00 | 0.00 | 74 | 1015.7 |
| 20260506185058 | 83 | 201 | 2.0 | 5.0 | 0.00 | 0.00 | 0.00 | 73 | 1015.8 |
| 20260506184601 | 84 | 141 | 1.0 | 6.0 | 0.00 | 0.00 | 0.00 | 76 | 1015.7 |
| 20260506184058 | 83 | 117 | 2.0 | 6.0 | 0.00 | 0.00 | 0.00 | 76 | 1015.7 |
| 20260506183559 | 83 | 229 | 1.0 | 6.0 | 0.00 | 0.00 | 0.00 | 73 | 1015.7 |
| 20260506183101 | 83 | 156 | 2.0 | 10.0 | 0.00 | 0.00 | 0.00 | 72 | 1015.7 |
| 20260506182558 | 83 | 130 | 4.0 | 10.0 | 0.00 | 0.00 | 0.00 | 78 | 1015.6 |
| 20260506182058 | 83 | 142 | 4.0 | 7.0 | 0.00 | 0.00 | 0.00 | 76 | 1015.7 |
| 20260506181556 | 82 | 306 | 2.0 | 5.0 | 0.00 | 0.00 | 0.00 | 75 | 1015.8 |
| 20260506181058 | 82 | 192 | 1.0 | 4.0 | 0.00 | 0.00 | 0.00 | 74 | 1016.1 |
| 20260506180558 | 82 | 147 | 1.0 | 6.0 | 0.00 | 0.00 | 0.00 | 78 | 1016.1 |
| 20260506180106 | 82 | 188 | 3.0 | 6.0 | 0.00 | 0.00 | 0.00 | 75 | 1016.2 |
| 20260506175555 | 81 | 179 | 1.0 | 6.0 | 0.00 | 0.00 | 0.00 | 77 | 1016.1 |
| 20260506175058 | 80 | 276 | 2.0 | 6.0 | 0.00 | 0.00 | 0.00 | 80 | 1016.2 |
| 20260506174556 | 79 | 117 | 3.0 | 6.0 | 0.00 | 0.00 | 0.00 | 79 | 1016.3 |
| 20260506174055 | 79 | 138 | 2.0 | 5.0 | 0.00 | 0.00 | 0.00 | 83 | 1016.3 |
| 20260506173558 | 79 | 130 | 1.0 | 5.0 | 0.00 | 0.00 | 0.00 | 83 | 1016.5 |
| 20260506173059 | 79 | 235 | 1.0 | 5.0 | 0.00 | 0.00 | 0.00 | 83 | 1016.7 |
| 20260506172557 | 78 | 150 | 1.0 | 5.0 | 0.00 | 0.00 | 0.00 | 81 | 1016.6 |
| 20260506172058 | 78 | 200 | 1.0 | 5.0 | 0.00 | 0.00 | 0.00 | 80 | 1016.8 |
| 20260506171603 | 78 | 217 | 2.0 | 5.0 | 0.00 | 0.00 | 0.00 | 84 | 1016.7 |
| 20260506171058 | 78 | 121 | 2.0 | 6.0 | 0.00 | 0.00 | 0.00 | 84 | 1016.7 |
| 20260506170558 | 78 | 141 | 2.0 | 6.0 | 0.00 | 0.00 | 0.00 | 82 | 1016.7 |
| 20260506170106 | 78 | 143 | 3.0 | 6.0 | 0.00 | 0.00 | 0.00 | 82 | 1016.6 |
| 20260506165558 | 78 | 123 | 2.0 | 5.0 | 0.00 | 0.00 | 0.00 | 82 | 1016.7 |
| 20260506165058 | 78 | 134 | 2.0 | 5.0 | 0.00 | 0.00 | 0.00 | 81 | 1016.9 |
| 20260506164607 | 78 | 149 | 1.0 | 5.0 | 0.00 | 0.00 | 0.00 | 82 | 1016.9 |
| 20260506164059 | 78 | 130 | 2.0 | 5.0 | 0.00 | 0.00 | 0.00 | 81 | 1016.8 |
| 20260506163601 | 78 | 146 | 2.0 | 5.0 | 0.00 | 0.00 | 0.00 | 84 | 1016.9 |
| 20260506163119 | 78 | 143 | 2.0 | 5.0 | 0.00 | 0.00 | 0.00 | 85 | 1017.0 |
| 20260506162558 | 77 | 150 | 1.0 | 6.0 | 0.00 | 0.00 | 0.00 | 85 | 1017.0 |
| 20260506162058 | 77 | 140 | 1.0 | 6.0 | 0.00 | 0.00 | 0.00 | 83 | 1017.0 |
| 20260506161614 | 77 | 228 | 1.0 | 6.0 | 0.00 | 0.00 | 0.00 | 82 | 1017.2 |
| 20260506161058 | 77 | 246 | 2.0 | 5.0 | 0.00 | 0.00 | 0.00 | 82 | 1017.3 |
| 20260506160558 | 77 | 311 | 1.0 | 3.0 | 0.00 | 0.00 | 0.00 | 83 | 1017.3 |
| 20260506160056 | 77 | 147 | 1.0 | 4.0 | 0.00 | 0.00 | 0.00 | 83 | 1017.3 |
| 20260506155558 | 76 | 158 | 1.0 | 4.0 | 0.00 | 0.00 | 0.00 | 83 | 1017.3 |
| 20260506155058 | 76 | 221 | 0.0 | 3.0 | 0.00 | 0.00 | 0.00 | 84 | 1017.3 |
| 20260506154624 | 76 | 146 | 0.0 | 5.0 | 0.00 | 0.00 | 0.00 | 87 | 1017.3 |
| 20260506154100 | 76 | 147 | 2.0 | 5.0 | 0.00 | 0.00 | 0.00 | 83 | 1017.2 |
| 20260506153558 | 76 | 215 | 1.0 | 6.0 | 0.00 | 0.00 | 0.00 | 82 | 1017.2 |
| 20260506153107 | 76 | 0 | 1.0 | 6.0 | 0.00 | 0.00 | 0.00 | 83 | 1017.1 |
| 20260506152557 | 76 | 135 | 3.0 | 5.0 | 0.00 | 0.00 | 0.00 | 84 | 1017.1 |
| 20260506152100 | 76 | 143 | 1.0 | 4.0 | 0.00 | 0.00 | 0.00 | 86 | 1017.1 |
| 20260506151600 | 76 | 199 | 1.0 | 4.0 | 0.00 | 0.00 | 0.00 | 84 | 1017.1 |
| 20260506151058 | 75 | 0 | 1.0 | 4.0 | 0.00 | 0.00 | 0.00 | 85 | 1017.0 |
| 20260506150558 | 75 | 195 | 0.0 | 4.0 | 0.00 | 0.00 | 0.00 | 85 | 1017.1 |
| 20260506145558 | 75 | 218 | 0.0 | 6.0 | 0.00 | 0.00 | 0.00 | 89 | 1017.0 |
| 20260506145058 | 74 | 136 | 3.0 | 5.0 | 0.00 | 0.00 | 0.00 | 89 | 1016.9 |
| 20260506144558 | 74 | 193 | 1.0 | 8.0 | 0.00 | 0.00 | 0.00 | 87 | 1016.7 |
| 20260506144058 | 74 | 169 | 1.0 | 8.0 | 0.00 | 0.00 | 0.00 | 88 | 1016.9 |
| 20260506143555 | 74 | 205 | 2.0 | 5.0 | 0.00 | 0.00 | 0.00 | 88 | 1016.8 |
| 20260506143107 | 73 | 247 | 1.0 | 5.0 | 0.00 | 0.00 | 0.00 | 91 | 1016.8 |
| 20260506142602 | 73 | 236 | 2.0 | 4.0 | 0.00 | 0.00 | 0.00 | 89 | 1016.9 |
| 20260506142057 | 73 | 229 | 1.0 | 5.0 | 0.00 | 0.00 | 0.00 | 89 | 1016.8 |
| 20260506141559 | 73 | 229 | 1.0 | 5.0 | 0.00 | 0.00 | 0.00 | 89 | 1016.8 |
| 20260506141058 | 73 | 243 | 2.0 | 5.0 | 0.00 | 0.00 | 0.00 | 90 | 1016.7 |
| 20260506140556 | 73 | 272 | 1.0 | 7.0 | 0.00 | 0.00 | 0.00 | 91 | 1016.8 |
| 20260506140059 | 72 | 148 | 2.0 | 7.0 | 0.00 | 0.00 | 0.00 | 92 | 1016.8 |
| 20260506135555 | 72 | 266 | 2.0 | 6.0 | 0.00 | 0.00 | 0.00 | 92 | 1016.6 |
| 20260506135058 | 72 | 213 | 2.0 | 5.0 | 0.00 | 0.00 | 0.00 | 93 | 1016.7 |
| 20260506134557 | 72 | 239 | 0.0 | 4.0 | 0.00 | 0.00 | 0.00 | 94 | 1016.7 |
| 20260506134058 | 71 | 157 | 1.0 | 6.0 | 0.00 | 0.00 | 0.00 | 94 | 1016.4 |
| 20260506133558 | 71 | 190 | 1.0 | 6.0 | 0.00 | 0.00 | 0.00 | 94 | 1016.5 |
| 20260506133057 | 71 | 230 | 3.0 | 7.0 | 0.00 | 0.00 | 0.00 | 94 | 1016.3 |
| 20260506132628 | 71 | 233 | 1.0 | 7.0 | 0.00 | 0.00 | 0.00 | 94 | 1016.2 |
| 20260506132101 | 71 | 231 | 1.0 | 7.0 | 0.00 | 0.00 | 0.00 | 94 | 1016.1 |
| 20260506131559 | 71 | 240 | 2.0 | 7.0 | 0.00 | 0.00 | 0.00 | 94 | 1016.2 |
| 20260506131058 | 71 | 245 | 2.0 | 6.0 | 0.00 | 0.00 | 0.00 | 95 | 1015.9 |
| 20260506130559 | 70 | 144 | 3.0 | 6.0 | 0.00 | 0.00 | 0.00 | 94 | 1015.8 |
| 20260506125557 | 70 | 200 | 2.0 | 4.0 | 0.00 | 0.00 | 0.00 | 95 | 1015.7 |
| 20260506125059 | 70 | 146 | 1.0 | 5.0 | 0.00 | 0.00 | 0.00 | 96 | 1015.6 |
| 20260506124556 | 70 | 260 | 2.0 | 5.0 | 0.00 | 0.00 | 0.00 | 96 | 1015.7 |
| 20260506124058 | 69 | 155 | 1.0 | 4.0 | 0.00 | 0.00 | 0.00 | 97 | 1015.7 |
| 20260506123556 | 69 | 198 | 0.0 | 5.0 | 0.00 | 0.00 | 0.00 | 97 | 1015.5 |
| 20260506123057 | 68 | 178 | 1.0 | 5.0 | 0.00 | 0.00 | 0.00 | 97 | 1015.5 |
| 20260506122556 | 68 | 160 | 1.0 | 4.0 | 0.00 | 0.00 | 0.00 | 97 | 1015.6 |
| 20260506122055 | 68 | 193 | 0.0 | 4.0 | 0.00 | 0.00 | 0.00 | 97 | 1015.6 |
| 20260506121557 | 68 | 141 | 1.0 | 4.0 | 0.00 | 0.00 | 0.00 | 97 | 1015.5 |
| 20260506121055 | 67 | 145 | 0.0 | 1.0 | 0.00 | 0.00 | 0.00 | 97 | 1015.4 |
| 20260506120558 | 67 | 0 | 0.0 | 1.0 | 0.00 | 0.00 | 0.00 | 97 | 1015.4 |
| 20260506120101 | 67 | 150 | 0.0 | 1.0 | 0.00 | 0.00 | 0.00 | 97 | 1015.3 |
| 20260506115559 | 67 | 142 | 0.0 | 2.0 | 0.00 | 0.00 | 0.00 | 97 | 1015.2 |
| 20260506115056 | 67 | 0 | 0.0 | 2.0 | 0.00 | 0.00 | 0.00 | 97 | 1015.1 |
| 20260506114606 | 67 | 0 | 1.0 | 3.0 | 0.00 | 0.00 | 0.00 | 97 | 1014.9 |
| 20260506114101 | 67 | 0 | 0.0 | 3.0 | 0.00 | 0.00 | 0.00 | 97 | 1014.8 |
| 20260506113556 | 67 | 146 | 0.0 | 3.0 | 0.00 | 0.00 | 0.00 | 97 | 1014.7 |
| 20260506113057 | 67 | 136 | 0.0 | 2.0 | 0.00 | 0.00 | 0.00 | 97 | 1014.7 |
| 20260506112556 | 67 | 156 | 0.0 | 2.0 | 0.00 | 0.00 | 0.00 | 97 | 1014.7 |
| 20260506112055 | 67 | 0 | 0.0 | 2.0 | 0.00 | 0.00 | 0.00 | 97 | 1014.7 |
| 20260506111557 | 66 | 139 | 0.0 | 2.0 | 0.00 | 0.00 | 0.00 | 97 | 1014.6 |
| 20260506111055 | 66 | 143 | 0.0 | 2.0 | 0.00 | 0.00 | 0.00 | 97 | 1014.4 |
| 20260506110555 | 66 | 144 | 1.0 | 2.0 | 0.00 | 0.00 | 0.00 | 97 | 1014.4 |
| 20260506110103 | 66 | 146 | 0.0 | 3.0 | 0.00 | 0.00 | 0.00 | 97 | 1014.3 |
| 20260506105558 | 66 | 0 | 1.0 | 3.0 | 0.00 | 0.00 | 0.00 | 97 | 1014.1 |
| 20260506105057 | 66 | 138 | 0.0 | 3.0 | 0.00 | 0.00 | 0.00 | 97 | 1014.0 |
| 20260506104556 | 66 | 131 | 1.0 | 3.0 | 0.00 | 0.00 | 0.00 | 97 | 1013.8 |
| 20260506104055 | 66 | 150 | 1.0 | 4.0 | 0.00 | 0.00 | 0.00 | 97 | 1013.7 |
| 20260506103559 | 66 | 143 | 1.0 | 4.0 | 0.00 | 0.00 | 0.00 | 97 | 1013.6 |
| 20260506103057 | 66 | 150 | 2.0 | 5.0 | 0.00 | 0.00 | 0.00 | 97 | 1013.4 |
| 20260506102558 | 66 | 143 | 2.0 | 5.0 | 0.00 | 0.00 | 0.00 | 97 | 1013.4 |
| 20260506102059 | 66 | 144 | 2.0 | 4.0 | 0.00 | 0.00 | 0.00 | 97 | 1013.4 |
| 20260506101604 | 66 | 146 | 2.0 | 5.0 | 0.00 | 0.00 | 0.00 | 97 | 1013.4 |
| 20260506101055 | 66 | 128 | 3.0 | 5.0 | 0.00 | 0.00 | 0.00 | 97 | 1013.3 |
| 20260506100555 | 66 | 152 | 2.0 | 5.0 | 0.00 | 0.00 | 0.00 | 97 | 1013.2 |
| 20260506100056 | 66 | 141 | 2.0 | 4.0 | 0.00 | 0.00 | 0.00 | 97 | 1013.2 |
| 20260506095559 | 66 | 147 | 1.0 | 4.0 | 0.00 | 0.00 | 0.00 | 97 | 1013.3 |
| 20260506095058 | 66 | 171 | 1.0 | 6.0 | 0.00 | 0.00 | 0.00 | 97 | 1013.2 |
| 20260506094622 | 65 | 131 | 2.0 | 6.0 | 0.00 | 0.00 | 0.00 | 97 | 1013.2 |
| 20260506094057 | 65 | 150 | 2.0 | 6.0 | 0.00 | 0.00 | 0.00 | 97 | 1013.3 |
| 20260506093558 | 65 | 158 | 2.0 | 4.0 | 0.00 | 0.00 | 0.00 | 97 | 1013.3 |
| 20260506093057 | 65 | 149 | 1.0 | 3.0 | 0.00 | 0.00 | 0.00 | 97 | 1013.2 |
| 20260506092558 | 65 | 141 | 1.0 | 4.0 | 0.00 | 0.00 | 0.00 | 97 | 1013.2 |
| 20260506092058 | 65 | 126 | 1.0 | 4.0 | 0.00 | 0.00 | 0.00 | 97 | 1013.1 |
| 20260506091557 | 65 | 158 | 2.0 | 3.0 | 0.00 | 0.00 | 0.00 | 97 | 1013.2 |
| 20260506091058 | 65 | 144 | 1.0 | 4.0 | 0.00 | 0.00 | 0.00 | 97 | 1013.3 |
| 20260506090555 | 65 | 148 | 1.0 | 6.0 | 0.00 | 0.00 | 0.00 | 97 | 1013.2 |
| 20260506090059 | 65 | 142 | 3.0 | 6.0 | 0.00 | 0.00 | 0.00 | 97 | 1013.3 |
| 20260506085558 | 65 | 140 | 2.0 | 4.0 | 0.00 | 0.00 | 0.00 | 97 | 1013.4 |
| 20260506085058 | 65 | 143 | 2.0 | 3.0 | 0.00 | 0.00 | 0.00 | 97 | 1013.3 |
| 20260506084556 | 65 | 148 | 1.0 | 3.0 | 0.00 | 0.00 | 0.00 | 97 | 1013.4 |
| 20260506084058 | 65 | 141 | 1.0 | 3.0 | 0.00 | 0.00 | 0.00 | 97 | 1013.5 |
| 20260506083555 | 65 | 0 | 0.0 | 5.0 | 0.00 | 0.00 | 0.00 | 97 | 1013.5 |
| 20260506083103 | 65 | 0 | 1.0 | 6.0 | 0.00 | 0.00 | 0.00 | 97 | 1013.4 |
| 20260506082602 | 65 | 136 | 2.0 | 6.0 | 0.00 | 0.00 | 0.00 | 97 | 1013.5 |
| 20260506082055 | 65 | 140 | 3.0 | 6.0 | 0.00 | 0.00 | 0.00 | 97 | 1013.5 |
| 20260506081559 | 65 | 134 | 2.0 | 5.0 | 0.00 | 0.00 | 0.00 | 97 | 1013.6 |
| 20260506081058 | 65 | 146 | 1.0 | 4.0 | 0.00 | 0.00 | 0.00 | 97 | 1013.7 |
| 20260506080558 | 65 | 156 | 1.0 | 4.0 | 0.00 | 0.00 | 0.00 | 97 | 1013.8 |
| 20260506073105 | 66 | 136 | 0.0 | 5.0 | 0.00 | 0.00 | 0.00 | 97 | 1013.9 |
| 20260506072556 | 66 | 0 | 0.0 | 5.0 | 0.00 | 0.00 | 0.00 | 97 | 1013.9 |
| 20260506072058 | 66 | 145 | 1.0 | 5.0 | 0.00 | 0.00 | 0.00 | 97 | 1013.9 |
| 20260506071559 | 66 | 0 | 0.0 | 3.0 | 0.00 | 0.00 | 0.00 | 97 | 1013.9 |
| 20260506071056 | 66 | 121 | 0.0 | 3.0 | 0.00 | 0.00 | 0.00 | 97 | 1013.9 |
| 20260506070556 | 66 | 0 | 1.0 | 3.0 | 0.00 | 0.00 | 0.00 | 97 | 1014.0 |
| 20260506070109 | 66 | 140 | 0.0 | 4.0 | 0.00 | 0.00 | 0.00 | 97 | 1014.0 |
| 20260506062058 | 67 | 141 | 1.0 | 4.0 | 0.00 | 0.00 | 0.00 | 97 | 1014.4 |
| 20260506061558 | 67 | 130 | 1.0 | 4.0 | 0.00 | 0.00 | 0.00 | 97 | 1014.7 |
| 20260506061058 | 67 | 144 | 2.0 | 4.0 | 0.00 | 0.00 | 0.00 | 97 | 1014.7 |
| 20260506060557 | 66 | 159 | 0.0 | 2.0 | 0.00 | 0.00 | 0.00 | 97 | 1014.7 |
| 20260506051058 | 65 | 0 | 1.0 | 3.0 | 0.00 | 0.00 | 0.00 | 96 | 1014.9 |
| 20260506050558 | 65 | 147 | 0.0 | 2.0 | 0.00 | 0.00 | 0.00 | 96 | 1014.8 |
| 20260506045057 | 65 | 0 | 0.0 | 1.0 | 0.00 | 0.00 | 0.00 | 95 | 1015.2 |
| 20260506044557 | 65 | 0 | 0.0 | 2.0 | 0.00 | 0.00 | 0.00 | 95 | 1015.1 |
| 20260506044055 | 65 | 144 | 0.0 | 2.0 | 0.00 | 0.00 | 0.00 | 95 | 1015.1 |
| 20260506043555 | 66 | 147 | 0.0 | 2.0 | 0.00 | 0.00 | 0.00 | 95 | 1015.2 |
| 20260506043059 | 66 | 148 | 0.0 | 2.0 | 0.00 | 0.00 | 0.00 | 94 | 1015.1 |
| 20260506042559 | 66 | 146 | 0.0 | 2.0 | 0.00 | 0.00 | 0.00 | 94 | 1015.2 |
| 20260506042101 | 66 | 147 | 0.0 | 2.0 | 0.00 | 0.00 | 0.00 | 94 | 1015.3 |
| 20260506041558 | 66 | 0 | 0.0 | 2.0 | 0.00 | 0.00 | 0.00 | 93 | 1015.3 |
| 20260506041058 | 66 | 148 | 0.0 | 2.0 | 0.00 | 0.00 | 0.00 | 93 | 1015.4 |
| 20260506040558 | 66 | 0 | 0.0 | 2.0 | 0.00 | 0.00 | 0.00 | 93 | 1015.3 |
| 20260506035631 | 66 | 148 | 0.0 | 2.0 | 0.00 | 0.00 | 0.00 | 92 | 1015.4 |
| 20260506035058 | 66 | 144 | 0.0 | 2.0 | 0.00 | 0.00 | 0.00 | 92 | 1015.4 |
| 20260506034611 | 66 | 0 | 0.0 | 0.0 | 0.00 | 0.00 | 0.00 | 91 | 1015.5 |
| 20260506034057 | 67 | 0 | 0.0 | 1.0 | 0.00 | 0.00 | 0.00 | 91 | 1015.7 |
| 20260506033557 | 67 | 0 | 0.0 | 2.0 | 0.00 | 0.00 | 0.00 | 91 | 1015.8 |
| 20260506033056 | 67 | 0 | 0.0 | 2.0 | 0.00 | 0.00 | 0.00 | 90 | 1015.8 |
| 20260506032558 | 67 | 135 | 0.0 | 2.0 | 0.00 | 0.00 | 0.00 | 90 | 1015.8 |
| 20260506032101 | 67 | 165 | 0.0 | 1.0 | 0.00 | 0.00 | 0.00 | 89 | 1015.6 |
| 20260506031605 | 67 | 129 | 0.0 | 2.0 | 0.00 | 0.00 | 0.00 | 89 | 1015.8 |
| 20260506031059 | 67 | 156 | 0.0 | 2.0 | 0.00 | 0.00 | 0.00 | 88 | 1015.7 |
| 20260506030600 | 67 | 145 | 0.0 | 3.0 | 0.00 | 0.00 | 0.00 | 88 | 1015.7 |
| 20260506025558 | 67 | 0 | 0.0 | 3.0 | 0.00 | 0.00 | 0.00 | 87 | 1015.6 |
| 20260506025058 | 67 | 146 | 0.0 | 3.0 | 0.00 | 0.00 | 0.00 | 87 | 1015.5 |
| 20260506024557 | 68 | 146 | 0.0 | 3.0 | 0.00 | 0.00 | 0.00 | 86 | 1015.4 |
| 20260506024059 | 68 | 142 | 0.0 | 2.0 | 0.00 | 0.00 | 0.00 | 85 | 1015.3 |
| 20260506023558 | 68 | 153 | 0.0 | 2.0 | 0.00 | 0.00 | 0.00 | 85 | 1015.3 |
| 20260506023059 | 68 | 0 | 0.0 | 1.0 | 0.00 | 0.00 | 0.00 | 84 | 1015.3 |
| 20260506022558 | 68 | 0 | 0.0 | 3.0 | 0.00 | 0.00 | 0.00 | 84 | 1015.3 |
| 20260506022059 | 68 | 139 | 0.0 | 3.0 | 0.00 | 0.00 | 0.00 | 83 | 1015.1 |
| 20260506021600 | 69 | 0 | 1.0 | 3.0 | 0.00 | 0.00 | 0.00 | 83 | 1015.0 |
| 20260506021058 | 69 | 134 | 1.0 | 3.0 | 0.00 | 0.00 | 0.00 | 83 | 1015.0 |
| 20260506020557 | 69 | 0 | 1.0 | 3.0 | 0.00 | 0.00 | 0.00 | 82 | 1014.9 |
| 20260506020101 | 69 | 0 | 1.0 | 3.0 | 0.00 | 0.00 | 0.00 | 82 | 1014.9 |
| 20260506015558 | 69 | 0 | 1.0 | 3.0 | 0.00 | 0.00 | 0.00 | 81 | 1014.9 |
| 20260506015100 | 69 | 144 | 0.0 | 4.0 | 0.00 | 0.00 | 0.00 | 81 | 1014.9 |
| 20260506014557 | 69 | 0 | 0.0 | 4.0 | 0.00 | 0.00 | 0.00 | 80 | 1014.9 |
| 20260506014059 | 70 | 141 | 2.0 | 4.0 | 0.00 | 0.00 | 0.00 | 80 | 1014.7 |
| 20260506013558 | 70 | 139 | 2.0 | 5.0 | 0.00 | 0.00 | 0.00 | 79 | 1014.7 |
| 20260506013059 | 70 | 139 | 2.0 | 5.0 | 0.00 | 0.00 | 0.00 | 78 | 1014.8 |
| 20260506012559 | 70 | 141 | 1.0 | 3.0 | 0.00 | 0.00 | 0.00 | 78 | 1014.8 |
| 20260506012058 | 70 | 173 | 1.0 | 3.0 | 0.00 | 0.00 | 0.00 | 78 | 1014.8 |
| 20260506011606 | 71 | 146 | 1.0 | 4.0 | 0.00 | 0.00 | 0.00 | 77 | 1014.9 |
| 20260506011058 | 71 | 145 | 1.0 | 4.0 | 0.00 | 0.00 | 0.00 | 77 | 1014.8 |
| 20260506010603 | 71 | 139 | 1.0 | 5.0 | 0.00 | 0.00 | 0.00 | 76 | 1014.9 |
| 20260506010059 | 71 | 134 | 2.0 | 5.0 | 0.00 | 0.00 | 0.00 | 76 | 1014.8 |
| 20260506005557 | 71 | 157 | 1.0 | 4.0 | 0.00 | 0.00 | 0.00 | 76 | 1014.7 |
| 20260506005058 | 71 | 148 | 2.0 | 4.0 | 0.00 | 0.00 | 0.00 | 75 | 1014.8 |
| 20260506004602 | 72 | 169 | 1.0 | 5.0 | 0.00 | 0.00 | 0.00 | 75 | 1014.7 |
| 20260506004058 | 72 | 142 | 2.0 | 6.0 | 0.00 | 0.00 | 0.00 | 74 | 1014.6 |
| 20260506003558 | 72 | 121 | 2.0 | 6.0 | 0.00 | 0.00 | 0.00 | 74 | 1014.6 |
| 20260506003059 | 72 | 156 | 2.0 | 6.0 | 0.00 | 0.00 | 0.00 | 73 | 1014.5 |
| 20260506002559 | 72 | 135 | 1.0 | 6.0 | 0.00 | 0.00 | 0.00 | 73 | 1014.6 |
| 20260506002058 | 73 | 131 | 2.0 | 6.0 | 0.00 | 0.00 | 0.00 | 72 | 1014.5 |
| 20260506001602 | 73 | 141 | 2.0 | 6.0 | 0.00 | 0.00 | 0.00 | 72 | 1014.3 |
| 20260506001058 | 73 | 0 | 2.0 | 6.0 | 0.00 | 0.00 | 0.00 | 71 | 1014.4 |
| 20260506000600 | 74 | 148 | 3.0 | 6.0 | 0.00 | 0.00 | 0.00 | 71 | 1014.4 |
| 20260506000105 | 74 | 117 | 2.0 | 5.0 | 0.00 | 0.00 | 0.00 | 71 | 1014.4 |
| 20260505235559 | 74 | 143 | 2.0 | 6.0 | 0.00 | 0.00 | 0.00 | 74 | 1014.4 |
| 20260505235058 | 75 | 146 | 2.0 | 6.0 | 0.00 | 0.00 | 0.00 | 70 | 1014.3 |
| 20260505234604 | 75 | 133 | 1.0 | 5.0 | 0.00 | 0.00 | 0.00 | 70 | 1014.4 |
| 20260505234058 | 75 | 173 | 2.0 | 8.0 | 0.00 | 0.00 | 0.00 | 69 | 1014.3 |
| 20260505233602 | 75 | 201 | 3.0 | 8.0 | 0.00 | 0.00 | 0.00 | 69 | 1014.3 |
| 20260505233111 | 75 | 205 | 3.0 | 7.0 | 0.00 | 0.00 | 0.00 | 68 | 1014.3 |
| 20260505232558 | 76 | 166 | 1.0 | 4.0 | 0.00 | 0.00 | 0.00 | 68 | 1014.3 |
| 20260505232058 | 76 | 127 | 2.0 | 6.0 | 0.00 | 0.00 | 0.00 | 67 | 1014.3 |
| 20260505231605 | 77 | 105 | 2.0 | 6.0 | 0.00 | 0.00 | 0.00 | 67 | 1014.2 |
| 20260505231101 | 77 | 148 | 1.0 | 7.0 | 0.00 | 0.00 | 0.00 | 65 | 1014.1 |
| 20260505230557 | 77 | 157 | 4.0 | 7.0 | 0.00 | 0.00 | 0.00 | 65 | 1014.0 |
| 20260505230059 | 77 | 216 | 2.0 | 6.0 | 0.00 | 0.00 | 0.00 | 65 | 1013.9 |
| 20260505225558 | 77 | 141 | 2.0 | 8.0 | 0.00 | 0.00 | 0.00 | 65 | 1013.8 |
| 20260505225058 | 77 | 138 | 3.0 | 8.0 | 0.00 | 0.00 | 0.00 | 64 | 1014.0 |
| 20260505224558 | 78 | 146 | 3.0 | 8.0 | 0.00 | 0.00 | 0.00 | 64 | 1013.9 |
| 20260505224055 | 78 | 139 | 2.0 | 6.0 | 0.00 | 0.00 | 0.00 | 64 | 1014.0 |
| 20260505223558 | 78 | 156 | 2.0 | 6.0 | 0.00 | 0.00 | 0.00 | 64 | 1014.1 |
| 20260505223057 | 78 | 137 | 2.0 | 8.0 | 0.00 | 0.00 | 0.00 | 63 | 1014.1 |
| 20260505222558 | 79 | 146 | 2.0 | 8.0 | 0.00 | 0.00 | 0.00 | 62 | 1014.0 |
| 20260505222058 | 79 | 217 | 3.0 | 11.0 | 0.00 | 0.00 | 0.00 | 64 | 1013.9 |
| 20260505221559 | 79 | 144 | 4.0 | 11.0 | 0.00 | 0.00 | 0.00 | 64 | 1013.8 |
| 20260505221057 | 79 | 135 | 2.0 | 10.0 | 0.00 | 0.00 | 0.00 | 64 | 1013.7 |
| 20260505220559 | 79 | 137 | 4.0 | 10.0 | 0.00 | 0.00 | 0.00 | 61 | 1013.6 |
| 20260505220100 | 79 | 135 | 3.0 | 7.0 | 0.00 | 0.00 | 0.00 | 62 | 1013.7 |
| 20260505215558 | 79 | 138 | 3.0 | 7.0 | 0.00 | 0.00 | 0.00 | 65 | 1013.8 |
| 20260505215058 | 79 | 210 | 3.0 | 7.0 | 0.00 | 0.00 | 0.00 | 62 | 1013.8 |
| 20260505214600 | 79 | 234 | 3.0 | 7.0 | 0.00 | 0.00 | 0.00 | 62 | 1013.9 |
| 20260505214058 | 80 | 160 | 2.0 | 8.0 | 0.00 | 0.00 | 0.00 | 61 | 1014.0 |
| 20260505213557 | 79 | 236 | 1.0 | 11.0 | 0.00 | 0.00 | 0.00 | 62 | 1014.0 |